DECAYED
Showing default

SZ-19, 61683 (Decayed)

Orbit data source: Space-Track

SZ-19, 61683 was a payload satellite owned by ZZHGB (CN) in LEO that was launched on Tue, 29 Oct 2024 UTC via a CHANG ZHENG 2F launch vehicle from the Jiuquan Satellite Launch Center, China (JSC). Payload-class satellites include a variety of spacecraft equipped with specific instruments for various scientific and technological missions. These include communications satellites like Starlink; space stations such as the ISS; scientific satellites like the Hubble; Earth observation satellites from companies like Planet Labs, Umbra, and HawkEye 360; GPS; miniature CubeSats for education and research; and military/defense satellites.

Loading next visibility...
Identifier
61683, 2024-194A
Orbit
Decayed
Country
Flag of CNCN / PRC
Related business
Manufacturer
CALT
Mission
Decayed Civil Spaceship
Bus & Motor
SHENZHOU, Unknown motor
Mass
~8,100 kg wet, 3,258 kg dry
Launch date (UTC)
2024-10-29 (2 years ago)
Launch vehicle
CHANG ZHENG 2F
Launch site
Jiuquan Satellite Launch Center, China (JSC)
Object type
Payload
Rocket body
Debris
Shape & HBR
Cyl + 2 Pan, 8.5 m
Radar Cross Section
39.234 m², Large (>1 m²)

Expand to show TLE details & history
Last TLE update: 1 year ago

TLE from 1 year ago
0 SZ-19
1 61683U 24194A   25122.74700472  .00000615  00000-0  11001-4 0  9996
2 61683  41.4751 296.9761 0005180 287.8657  72.1617 15.61260438227679
Epoch: 2025-05-02T17:55Z
TLE epoch observation values (Epoch: 2025-05-02T17:55:41.207Z)
Latitude
-0.00003°
Longitude
167.15519°
Altitude
382.544 km
Speed
7.683 km/s
True Right ascension
19h 47m 54s
True Declination
0° 00' 00"
Sunlit
Object was in daylight at epoch
Visualization orbit readout
Latitude
Unknown
Longitude
Unknown
Altitude
Unknown
Speed
Unknown
Apparent Right ascension
Unknown
Apparent Declination
Unknown
Sunlit
N/A
Visualization observer readout
Local Sidereal Time
10:10:18
Azimuth
Unknown
Elevation
Unknown
Doppler factor
Unknown
Orbital elements
Apogee altitude
389.752 km
Perigee altitude
382.744 km
Semi-major axis
6,764.385 km
Eccentricity
0.00052
Inclination
41.4751°
RAAN
296.9761°
Arg. of periapsis
287.8657°
True anomaly
72.21822°
Mean anomaly
72.1617°
Eccentric anomaly
72.18996°
Mean motion
3.90122 °/min
Orbital period
92.28 mins
BSTAR
0.000011001
Loading maneuver chart data...
Computing Atmospheric mass density...
Loading historical data...
Loading historical data...
Loading historical data...
Loading historical data...
Loading historical data...
Loading historical data...
Loading historical data...

Documentation

Showing up to 5 results
|